| time (UTC) | temp C | wind direction | speed KPH | gust KPH | rain 1hr cm | rain 24hr cm | rain mn cm | humidity % | barometer mb |
| 20260509200033 | 27 | 248 | 0.0 | 4.8 | 0.00 | 0.00 | 0.00 | 36 | 1011.0 |
| 20260509194527 | 27 | 305 | 0.0 | 9.7 | 0.00 | 0.00 | 0.00 | 38 | 1011.1 |
| 20260509193022 | 26 | 111 | 0.0 | 4.8 | 0.00 | 0.00 | 0.00 | 41 | 1011.3 |
| 20260509191513 | 25 | 86 | 0.0 | 8.0 | 0.00 | 0.00 | 0.00 | 42 | 1011.6 |
| 20260509190010 | 25 | 109 | 0.0 | 4.8 | 0.00 | 0.00 | 0.00 | 45 | 1011.8 |
| 20260509184507 | 23 | 169 | 0.0 | 6.4 | 0.00 | 0.00 | 0.00 | 48 | 1012.0 |
| 20260509183109 | 23 | 221 | 0.0 | 6.4 | 0.00 | 0.00 | 0.00 | 49 | 1012.1 |
| 20260509181557 | 22 | 53 | 0.0 | 4.8 | 0.00 | 0.00 | 0.00 | 53 | 1012.3 |
| 20260509180051 | 21 | 120 | 0.0 | 3.2 | 0.00 | 0.00 | 0.00 | 58 | 1012.5 |
| 20260509174551 | 20 | 111 | 0.0 | 4.8 | 0.00 | 0.00 | 0.00 | 63 | 1012.7 |
| 20260509173045 | 18 | 83 | 0.0 | 3.2 | 0.00 | 0.00 | 0.00 | 67 | 1012.8 |
| 20260509171543 | 17 | 89 | 0.0 | 4.8 | 0.00 | 0.00 | 0.00 | 70 | 1012.9 |
| 20260509170034 | 16 | 128 | 0.0 | 1.6 | 0.00 | 0.00 | 0.00 | 79 | 1013.1 |
| 20260509164530 | 14 | 192 | 0.0 | 0.0 | 0.00 | 0.00 | 0.00 | 85 | 1013.1 |
| 20260509163036 | 13 | 288 | 0.0 | 8.0 | 0.00 | 0.00 | 0.00 | 89 | 1013.2 |
| 20260509161528 | 12 | 227 | 0.0 | 3.2 | 0.00 | 0.00 | 0.00 | 91 | 1013.3 |
| 20260509160020 | 11 | 78 | 0.0 | 0.0 | 0.00 | 0.00 | 0.00 | 92 | 1013.5 |
| 20260509154518 | 11 | 139 | 0.0 | 0.0 | 0.00 | 0.00 | 0.00 | 92 | 1013.5 |
| 20260509153031 | 10 | 36 | 0.0 | 0.0 | 0.00 | 0.00 | 0.00 | 92 | 1013.6 |
| 20260509151513 | 10 | 15 | 0.0 | 0.0 | 0.00 | 0.00 | 0.00 | 92 | 1013.5 |
| 20260509150021 | 10 | 84 | 0.0 | 0.0 | 0.00 | 0.00 | 0.00 | 92 | 1013.5 |
| 20260509144508 | 10 | 79 | 0.0 | 0.0 | 0.00 | 0.00 | 0.00 | 92 | 1013.5 |
| 20260509143007 | 10 | 140 | 0.0 | 0.0 | 0.00 | 0.00 | 0.00 | 92 | 1013.4 |
| 20260509141504 | 10 | 55 | 0.0 | 0.0 | 0.00 | 0.00 | 0.00 | 91 | 1013.5 |
| 20260509140001 | 9 | 84 | 0.0 | 0.0 | 0.00 | 0.00 | 0.00 | 91 | 1013.3 |
| 20260509134559 | 8 | 51 | 0.0 | 0.0 | 0.00 | 0.00 | 0.00 | 90 | 1013.3 |
| 20260509133056 | 8 | 51 | 0.0 | 0.0 | 0.00 | 0.00 | 0.00 | 90 | 1013.2 |
| 20260509131557 | 8 | 40 | 0.0 | 0.0 | 0.00 | 0.00 | 0.00 | 89 | 1013.1 |
| 20260509130056 | 7 | 40 | 0.0 | 0.0 | 0.00 | 0.00 | 0.00 | 88 | 1012.9 |
| 20260509124554 | 7 | 40 | 0.0 | 0.0 | 0.00 | 0.00 | 0.00 | 88 | 1012.9 |
| 20260509123114 | 7 | 40 | 0.0 | 0.0 | 0.00 | 0.00 | 0.00 | 88 | 1012.8 |
| 20260509121557 | 7 | 40 | 0.0 | 0.0 | 0.00 | 0.00 | 0.00 | 87 | 1012.9 |
| 20260509120050 | 7 | 40 | 0.0 | 0.0 | 0.00 | 0.00 | 0.00 | 87 | 1013.0 |
| 20260509114548 | 8 | 40 | 0.0 | 0.0 | 0.00 | 0.00 | 0.00 | 86 | 1013.0 |
| 20260509113047 | 8 | 40 | 0.0 | 0.0 | 0.00 | 0.00 | 0.00 | 86 | 1013.1 |
| 20260509111548 | 8 | 40 | 0.0 | 0.0 | 0.00 | 0.00 | 0.00 | 86 | 1013.1 |
| 20260509110045 | 8 | 40 | 0.0 | 0.0 | 0.00 | 0.00 | 0.00 | 85 | 1013.2 |
| 20260509104543 | 8 | 40 | 0.0 | 0.0 | 0.00 | 0.00 | 0.00 | 85 | 1013.2 |
| 20260509103047 | 8 | 40 | 0.0 | 0.0 | 0.00 | 0.00 | 0.00 | 85 | 1013.2 |
| 20260509101539 | 9 | 40 | 0.0 | 0.0 | 0.00 | 0.00 | 0.00 | 84 | 1013.2 |
| 20260509100037 | 9 | 40 | 0.0 | 0.0 | 0.00 | 0.00 | 0.00 | 84 | 1013.1 |
| 20260509094536 | 10 | 40 | 0.0 | 0.0 | 0.00 | 0.00 | 0.00 | 83 | 1013.0 |
| 20260509093040 | 10 | 40 | 0.0 | 0.0 | 0.00 | 0.00 | 0.00 | 83 | 1013.0 |
| 20260509091532 | 10 | 40 | 0.0 | 0.0 | 0.00 | 0.00 | 0.00 | 82 | 1013.1 |
| 20260509090031 | 10 | 40 | 0.0 | 0.0 | 0.00 | 0.00 | 0.00 | 81 | 1013.0 |
| 20260509084532 | 10 | 40 | 0.0 | 0.0 | 0.00 | 0.00 | 0.00 | 81 | 1013.0 |
| 20260509083031 | 11 | 321 | 0.0 | 0.0 | 0.00 | 0.00 | 0.00 | 80 | 1013.2 |
| 20260509081525 | 11 | 321 | 0.0 | 0.0 | 0.00 | 0.00 | 0.00 | 80 | 1013.1 |
| 20260509080023 | 11 | 321 | 0.0 | 0.0 | 0.00 | 0.00 | 0.00 | 78 | 1013.2 |
| 20260509074522 | 11 | 321 | 0.0 | 0.0 | 0.00 | 0.00 | 0.00 | 76 | 1013.2 |
| 20260509073019 | 11 | 321 | 0.0 | 0.0 | 0.00 | 0.00 | 0.00 | 75 | 1013.2 |
| 20260509071517 | 12 | 321 | 0.0 | 0.0 | 0.00 | 0.00 | 0.00 | 74 | 1013.2 |
| 20260509070015 | 12 | 321 | 0.0 | 0.0 | 0.00 | 0.00 | 0.00 | 72 | 1013.1 |
| 20260509064514 | 12 | 321 | 0.0 | 0.0 | 0.00 | 0.00 | 0.00 | 72 | 1013.2 |
| 20260509063017 | 12 | 321 | 0.0 | 0.0 | 0.00 | 0.00 | 0.00 | 71 | 1013.1 |
| 20260509061512 | 13 | 217 | 0.0 | 0.0 | 0.00 | 0.00 | 0.00 | 70 | 1013.1 |
| 20260509060012 | 13 | 217 | 0.0 | 0.0 | 0.00 | 0.00 | 0.00 | 69 | 1013.1 |
| 20260509054511 | 14 | 217 | 0.0 | 0.0 | 0.00 | 0.00 | 0.00 | 68 | 1013.1 |
| 20260509053010 | 14 | 217 | 0.0 | 0.0 | 0.00 | 0.00 | 0.00 | 67 | 1013.0 |
| 20260509051510 | 15 | 217 | 0.0 | 0.0 | 0.00 | 0.00 | 0.00 | 66 | 1012.8 |
| 20260509050026 | 15 | 290 | 0.0 | 0.0 | 0.00 | 0.00 | 0.00 | 65 | 1012.8 |
| 20260509044510 | 15 | 290 | 0.0 | 0.0 | 0.00 | 0.00 | 0.00 | 65 | 1012.6 |
| 20260509043009 | 16 | 294 | 0.0 | 0.0 | 0.00 | 0.00 | 0.00 | 64 | 1012.4 |
| 20260509041508 | 17 | 289 | 0.0 | 0.0 | 0.00 | 0.00 | 0.00 | 63 | 1012.1 |
| 20260509040008 | 17 | 224 | 0.0 | 0.0 | 0.00 | 0.00 | 0.00 | 60 | 1011.9 |
| 20260509034507 | 18 | 240 | 0.0 | 0.0 | 0.00 | 0.00 | 0.00 | 56 | 1011.7 |
| 20260509033006 | 19 | 253 | 0.0 | 0.0 | 0.00 | 0.00 | 0.00 | 55 | 1011.5 |
| 20260509031510 | 20 | 296 | 0.0 | 0.0 | 0.00 | 0.00 | 0.00 | 53 | 1011.4 |
| 20260509030006 | 20 | 275 | 0.0 | 0.0 | 0.00 | 0.00 | 0.00 | 51 | 1011.2 |
| 20260509024505 | 21 | 286 | 0.0 | 0.0 | 0.00 | 0.00 | 0.00 | 48 | 1011.0 |
| 20260509023007 | 22 | 333 | 0.0 | 0.0 | 0.00 | 0.00 | 0.00 | 46 | 1010.8 |
| 20260509021505 | 22 | 77 | 0.0 | 0.0 | 0.00 | 0.00 | 0.00 | 45 | 1010.7 |
| 20260509020004 | 22 | 130 | 0.0 | 0.0 | 0.00 | 0.00 | 0.00 | 44 | 1010.6 |
| 20260509014504 | 22 | 112 | 0.0 | 0.0 | 0.00 | 0.00 | 0.00 | 44 | 1010.7 |
| 20260509013003 | 23 | 150 | 0.0 | 9.7 | 0.00 | 0.00 | 0.00 | 43 | 1010.6 |
| 20260509011504 | 23 | 301 | 0.0 | 6.4 | 0.00 | 0.00 | 0.00 | 40 | 1010.6 |
| 20260509010010 | 23 | 256 | 1.6 | 9.7 | 0.00 | 0.00 | 0.00 | 39 | 1010.5 |
| 20260509004503 | 23 | 229 | 1.6 | 12.9 | 0.00 | 0.00 | 0.00 | 38 | 1010.6 |
| 20260509003100 | 24 | 288 | 0.0 | 12.9 | 0.00 | 0.00 | 0.00 | 40 | 1010.8 |
| 20260509001600 | 24 | 257 | 0.0 | 11.3 | 0.00 | 0.00 | 0.00 | 40 | 1010.9 |
| 20260509000108 | 24 | 289 | 1.6 | 9.7 | 0.00 | 0.00 | 0.00 | 39 | 1010.9 |
| 20260508234609 | 24 | 252 | 3.2 | 12.9 | 0.00 | 0.00 | 0.00 | 42 | 1010.9 |
| 20260508233059 | 25 | 211 | 1.6 | 8.0 | 0.00 | 0.00 | 0.00 | 46 | 1011.1 |
| 20260508231554 | 25 | 240 | 1.6 | 11.3 | 0.00 | 0.00 | 0.00 | 49 | 1011.2 |
| 20260508230101 | 25 | 288 | 1.6 | 14.5 | 0.00 | 0.00 | 0.00 | 48 | 1011.4 |
| 20260508224555 | 26 | 229 | 0.0 | 12.9 | 0.00 | 0.00 | 0.00 | 48 | 1011.4 |
| 20260508223050 | 26 | 231 | 0.0 | 9.7 | 0.00 | 0.00 | 0.00 | 47 | 1011.7 |
| 20260508221548 | 27 | 199 | 1.6 | 12.9 | 0.00 | 0.00 | 0.00 | 48 | 1011.9 |
| 20260508220046 | 27 | 233 | 3.2 | 11.3 | 0.00 | 0.00 | 0.00 | 47 | 1012.1 |
| 20260508214549 | 27 | 205 | 1.6 | 11.3 | 0.00 | 0.00 | 0.00 | 45 | 1012.4 |
| 20260508213052 | 28 | 215 | 0.0 | 8.0 | 0.00 | 0.00 | 0.00 | 46 | 1012.4 |
| 20260508211542 | 29 | 229 | 1.6 | 9.7 | 0.00 | 0.00 | 0.00 | 43 | 1012.5 |
| 20260508210043 | 29 | 258 | 0.0 | 4.8 | 0.00 | 0.00 | 0.00 | 43 | 1012.5 |
| 20260508204538 | 28 | 355 | 0.0 | 6.4 | 0.00 | 0.00 | 0.00 | 42 | 1012.7 |
| 20260508203035 | 28 | 64 | 0.0 | 8.0 | 0.00 | 0.00 | 0.00 | 43 | 1012.9 |
| 20260508201529 | 27 | 128 | 0.0 | 3.2 | 0.00 | 0.00 | 0.00 | 46 | 1013.2 |